Location: Carabito
(9.8355°N, 67.9249°W)
Time: 13:16:59
(UTC+00:00)

Cosmos 839 Rocket - Pass Details

Date: 23 May 2024
Orbit: 965 x 2087 km, 65.9° (Epoch: 25 June)

Event Time Altitude Azimuth Distance (km) Brightness Sun altitude
Rises 09:19:13 0° 324° (NW) 3,692 6.9 -12.4°
Reaches altitude 10° 09:21:57 10° 316° (NW) 2,706 6.1 -11.7°
Maximum altitude 09:27:30 37° 250° (WSW) 1,469 4.5 -10.5°
Drops below altitude 10° 09:33:20 10° 184° (S) 2,831 6.2 -9.2°
Sets 09:36:17 0° 176° (S) 3,886 6.9 -8.5°
